Location: Newark
(34.9500°N, 139.9667°E)
Time: 13:33:22
(UTC+00:00)

Altair - Pass Details

Date: 16 December 2019
Orbit: 1502 x 1682 km, 47.2° (Epoch: 23 January)

Event Time Altitude Azimuth Distance (km) Brightness Sun altitude
Rises 08:24:41 0° 209° (SSW) 4,877 11.0 -11.0°
Reaches altitude 10° 08:28:01 10° 204° (SSW) 3,872 10.3 -11.6°
Maximum altitude 08:37:18 48° 134° (SE) 2,007 7.9 -13.4°
Enters shadow 08:44:05 19° 69° (ENE) 3,126 8.5 -14.8°
